Time,TemperatureF,DewpointF,PressureIn,WindDirection,WindDirectionDegrees,WindSpeedMPH,WindSpeedGustMPH,Humidity,HourlyPrecipIn,Conditions,Clouds,dailyrainin,SolarRadiationWatts/m^2,SoftwareType,DateUTC
2013-01-07 00:00:00,42.6,31.3,30.08,SSW,204,2.0,5.0,64,0.00,,,0.00,0,Wunderground v.1.15,2013-01-07 05:00:00,
2013-01-07 00:05:00,42.8,31.5,30.08,SSW,205,3.0,5.0,64,0.00,,,0.00,0,Wunderground v.1.15,2013-01-07 05:05:00,
2013-01-07 00:10:00,42.6,31.3,30.08,SW,222,3.0,6.0,64,0.00,,,0.00,0,Wunderground v.1.15,2013-01-07 05:10:00,
2013-01-07 00:15:00,42.6,30.9,30.09,WSW,244,3.0,7.0,63,0.00,,,0.00,0,Wunderground v.1.15,2013-01-07 05:15:00,
2013-01-07 00:20:00,42.5,30.8,30.09,West,261,4.0,4.0,63,0.00,,,0.00,0,Wunderground v.1.15,2013-01-07 05:20:00,
2013-01-07 00:25:00,42.3,31.0,30.09,West,268,4.0,7.0,64,0.00,,,0.00,0,Wunderground v.1.15,2013-01-07 05:25:00,
2013-01-07 00:30:00,42.3,31.0,30.10,West,275,4.0,4.0,64,0.00,,,0.00,0,Wunderground v.1.15,2013-01-07 05:30:00,
2013-01-07 00:35:00,42.3,30.2,30.10,West,277,4.0,7.0,62,0.00,,,0.00,0,Wunderground v.1.15,2013-01-07 05:35:00,
2013-01-07 00:40:00,42.5,30.0,30.10,West,277,4.0,7.0,61,0.00,,,0.00,0,Wunderground v.1.15,2013-01-07 05:40:00,
2013-01-07 00:50:00,42.5,30.0,30.10,WNW,287,3.0,3.0,61,0.00,,,0.00,0,Wunderground v.1.15,2013-01-07 05:50:00,
2013-01-07 00:55:00,42.3,30.2,30.10,WNW,288,3.0,4.0,62,0.00,,,0.00,0,Wunderground v.1.15,2013-01-07 05:55:00,
2013-01-07 01:00:00,42.2,30.1,30.10,WNW,290,3.0,8.0,62,0.00,,,0.00,0,Wunderground v.1.15,2013-01-07 06:00:00,
2013-01-07 01:05:00,42.2,30.1,30.10,WNW,290,3.0,8.0,62,0.00,,,0.00,0,Wunderground v.1.15,2013-01-07 06:05:00,
2013-01-07 01:10:00,42.2,30.1,30.10,WNW,290,3.0,3.0,62,0.00,,,0.00,0,Wunderground v.1.15,2013-01-07 06:10:00,
2013-01-07 01:15:00,42.2,29.7,30.11,WNW,290,3.0,5.0,61,0.00,,,0.00,0,Wunderground v.1.15,2013-01-07 06:15:00,
2013-01-07 01:20:00,42.5,29.6,30.11,WNW,291,3.0,8.0,60,0.00,,,0.00,0,Wunderground v.1.15,2013-01-07 06:20:00,
2013-01-07 01:25:00,42.6,29.7,30.11,WNW,298,3.0,8.0,60,0.00,,,0.00,0,Wunderground v.1.15,2013-01-07 06:25:00,
2013-01-07 01:30:00,42.8,29.5,30.11,WNW,298,3.0,3.0,59,0.00,,,0.00,0,Wunderground v.1.15,2013-01-07 06:30:00,
2013-01-07 01:35:00,43.1,29.7,30.11,NW,313,4.0,4.0,59,0.00,,,0.00,0,Wunderground v.1.15,2013-01-07 06:35:00,
2013-01-07 01:40:00,43.3,29.1,30.11,NW,319,4.0,4.0,57,0.00,,,0.00,0,Wunderground v.1.15,2013-01-07 06:40:00,
2013-01-07 01:45:00,43.5,29.3,30.12,NW,319,4.0,11.0,57,0.00,,,0.00,0,Wunderground v.1.15,2013-01-07 06:45:00,
2013-01-07 01:50:00,43.5,29.7,30.12,NW,306,5.0,11.0,58,0.00,,,0.00,0,Wunderground v.1.15,2013-01-07 06:50:00,
2013-01-07 02:00:00,43.5,30.1,30.12,NW,315,5.0,11.0,59,0.00,,,0.00,0,Wunderground v.1.15,2013-01-07 07:00:00,
2013-01-07 02:05:00,43.5,29.7,30.12,NW,315,5.0,11.0,58,0.00,,,0.00,0,Wunderground v.1.15,2013-01-07 07:05:00,
2013-01-07 02:10:00,43.5,29.7,30.12,NW,316,5.0,5.0,58,0.00,,,0.00,0,Wunderground v.1.15,2013-01-07 07:10:00,
2013-01-07 02:15:00,43.5,29.7,30.12,NW,311,4.0,7.0,58,0.00,,,0.00,0,Wunderground v.1.15,2013-01-07 07:15:00,
2013-01-07 02:20:00,43.5,29.7,30.12,NW,309,4.0,4.0,58,0.00,,,0.00,0,Wunderground v.1.15,2013-01-07 07:20:00,
2013-01-07 02:30:00,43.2,29.8,30.13,NW,309,4.0,4.0,59,0.00,,,0.00,0,Wunderground v.1.15,2013-01-07 07:30:00,
2013-01-07 02:35:00,43.1,29.7,30.13,NW,309,4.0,12.0,59,0.00,,,0.00,0,Wunderground v.1.15,2013-01-07 07:35:00,
2013-01-07 02:40:00,42.9,29.5,30.13,NW,309,4.0,12.0,59,0.00,,,0.00,0,Wunderground v.1.15,2013-01-07 07:40:00,
2013-01-07 02:50:00,42.6,29.3,30.13,NW,307,3.0,8.0,59,0.00,,,0.00,0,Wunderground v.1.15,2013-01-07 07:50:00,
2013-01-07 02:55:00,42.5,29.2,30.13,NW,307,3.0,8.0,59,0.00,,,0.00,0,Wunderground v.1.15,2013-01-07 07:55:00,
2013-01-07 03:00:00,42.3,29.0,30.13,NW,307,4.0,4.0,59,0.00,,,0.00,0,Wunderground v.1.15,2013-01-07 08:00:00,
2013-01-07 03:05:00,42.2,29.3,30.13,NW,307,3.0,8.0,60,0.00,,,0.00,0,Wunderground v.1.15,2013-01-07 08:05:00,
2013-01-07 03:10:00,41.9,29.0,30.13,NW,307,3.0,8.0,60,0.00,,,0.00,0,Wunderground v.1.15,2013-01-07 08:10:00,
2013-01-07 03:15:00,41.6,29.1,30.14,NW,307,3.0,8.0,61,0.00,,,0.00,0,Wunderground v.1.15,2013-01-07 08:15:00,
2013-01-07 03:20:00,41.5,29.4,30.14,NW,307,3.0,6.0,62,0.00,,,0.00,0,Wunderground v.1.15,2013-01-07 08:20:00,
2013-01-07 03:30:00,41.2,29.2,30.14,NW,306,4.0,6.0,62,0.00,,,0.00,0,Wunderground v.1.15,2013-01-07 08:30:00,
2013-01-07 03:35:00,41.3,29.3,30.14,NW,306,4.0,6.0,62,0.00,,,0.00,0,Wunderground v.1.15,2013-01-07 08:35:00,
2013-01-07 03:40:00,41.3,29.3,30.14,NW,306,4.0,4.0,62,0.00,,,0.00,0,Wunderground v.1.15,2013-01-07 08:40:00,
2013-01-07 03:45:00,41.3,29.3,30.15,NW,306,4.0,8.0,62,0.00,,,0.00,0,Wunderground v.1.15,2013-01-07 08:45:00,
2013-01-07 03:50:00,41.2,29.2,30.15,NW,308,4.0,8.0,62,0.00,,,0.00,0,Wunderground v.1.15,2013-01-07 08:50:00,
2013-01-07 03:55:00,41.1,29.5,30.15,NW,309,5.0,8.0,63,0.00,,,0.00,0,Wunderground v.1.15,2013-01-07 08:55:00,
2013-01-07 04:00:00,40.9,29.7,30.16,NW,304,5.0,5.0,64,0.00,,,0.00,0,Wunderground v.1.15,2013-01-07 09:00:00,
2013-01-07 04:10:00,41.1,29.8,30.16,NW,317,5.0,8.0,64,0.00,,,0.00,0,Wunderground v.1.15,2013-01-07 09:10:00,
2013-01-07 04:15:00,41.2,29.9,30.16,NW,318,5.0,10.0,64,0.00,,,0.00,0,Wunderground v.1.15,2013-01-07 09:15:00,
2013-01-07 04:20:00,41.3,30.0,30.16,NW,312,5.0,10.0,64,0.00,,,0.00,0,Wunderground v.1.15,2013-01-07 09:20:00,
2013-01-07 04:25:00,41.3,30.0,30.16,NW,313,5.0,10.0,64,0.00,,,0.00,0,Wunderground v.1.15,2013-01-07 09:25:00,
2013-01-07 04:30:00,41.5,30.2,30.17,NW,313,5.0,10.0,64,0.00,,,0.00,0,Wunderground v.1.15,2013-01-07 09:30:00,
2013-01-07 04:40:00,41.6,30.3,30.17,NW,312,5.0,5.0,64,0.00,,,0.00,0,Wunderground v.1.15,2013-01-07 09:40:00,
2013-01-07 04:45:00,41.6,30.3,30.18,WNW,295,4.0,10.0,64,0.00,,,0.00,0,Wunderground v.1.15,2013-01-07 09:45:00,
2013-01-07 04:50:00,41.6,29.9,30.18,WNW,302,4.0,10.0,63,0.00,,,0.00,0,Wunderground v.1.15,2013-01-07 09:50:00,
2013-01-07 04:55:00,41.6,29.9,30.18,NW,304,5.0,10.0,63,0.00,,,0.00,0,Wunderground v.1.15,2013-01-07 09:55:00,
2013-01-07 05:00:00,41.6,30.3,30.19,WNW,302,5.0,10.0,64,0.00,,,0.00,0,Wunderground v.1.15,2013-01-07 10:00:00,
2013-01-07 05:10:00,41.3,30.0,30.19,NW,307,4.0,4.0,64,0.00,,,0.00,0,Wunderground v.1.15,2013-01-07 10:10:00,
2013-01-07 05:15:00,41.3,30.4,30.19,NW,311,4.0,11.0,65,0.00,,,0.00,0,Wunderground v.1.15,2013-01-07 10:15:00,
2013-01-07 05:20:00,41.2,30.7,30.19,NW,311,4.0,11.0,66,0.00,,,0.00,0,Wunderground v.1.15,2013-01-07 10:20:00,
2013-01-07 05:25:00,41.1,30.6,30.19,NW,312,4.0,11.0,66,0.00,,,0.00,0,Wunderground v.1.15,2013-01-07 10:25:00,
2013-01-07 05:30:00,40.9,30.8,30.20,NW,310,4.0,11.0,67,0.00,,,0.00,0,Wunderground v.1.15,2013-01-07 10:30:00,
2013-01-07 05:35:00,40.9,30.8,30.20,NW,309,4.0,11.0,67,0.00,,,0.00,0,Wunderground v.1.15,2013-01-07 10:35:00,
2013-01-07 05:40:00,40.8,30.7,30.20,NW,310,4.0,4.0,67,0.00,,,0.00,0,Wunderground v.1.15,2013-01-07 10:40:00,
2013-01-07 05:45:00,40.6,30.5,30.21,NW,310,4.0,5.0,67,0.00,,,0.00,0,Wunderground v.1.15,2013-01-07 10:45:00,
2013-01-07 05:50:00,40.6,30.5,30.21,NW,309,4.0,9.0,67,0.00,,,0.00,0,Wunderground v.1.15,2013-01-07 10:50:00,
2013-01-07 05:55:00,40.5,30.4,30.21,NW,309,4.0,9.0,67,0.00,,,0.00,0,Wunderground v.1.15,2013-01-07 10:55:00,
2013-01-07 06:00:00,40.5,30.4,30.22,NW,309,3.0,3.0,67,0.00,,,0.00,0,Wunderground v.1.15,2013-01-07 11:00:00,
2013-01-07 06:05:00,40.3,30.6,30.22,NW,309,2.0,9.0,68,0.00,,,0.00,0,Wunderground v.1.15,2013-01-07 11:05:00,
2013-01-07 06:15:00,40.2,30.5,30.23,NW,309,2.0,9.0,68,0.00,,,0.00,0,Wunderground v.1.15,2013-01-07 11:15:00,
2013-01-07 06:20:00,40.2,30.5,30.23,NW,309,1.0,6.0,68,0.00,,,0.00,0,Wunderground v.1.15,2013-01-07 11:20:00,
2013-01-07 06:25:00,40.1,30.4,30.23,NW,309,2.0,6.0,68,0.00,,,0.00,0,Wunderground v.1.15,2013-01-07 11:25:00,
2013-01-07 06:30:00,40.1,30.4,30.24,NW,309,3.0,3.0,68,0.00,,,0.00,0,Wunderground v.1.15,2013-01-07 11:30:00,
2013-01-07 06:35:00,40.1,30.4,30.24,NW,309,4.0,4.0,68,0.00,,,0.00,0,Wunderground v.1.15,2013-01-07 11:35:00,
2013-01-07 06:40:00,40.1,30.4,30.24,NW,310,4.0,6.0,68,0.00,,,0.00,0,Wunderground v.1.15,2013-01-07 11:40:00,
2013-01-07 06:45:00,40.3,30.6,30.24,NW,309,4.0,6.0,68,0.00,,,0.00,0,Wunderground v.1.15,2013-01-07 11:45:00,
2013-01-07 06:50:00,40.3,30.6,30.24,NW,309,3.0,3.0,68,0.00,,,0.00,0,Wunderground v.1.15,2013-01-07 11:50:00,
2013-01-07 07:00:00,40.5,30.4,30.25,NW,310,4.0,4.0,67,0.00,,,0.00,0,Wunderground v.1.15,2013-01-07 12:00:00,
2013-01-07 07:05:00,40.6,30.1,30.25,NW,311,4.0,6.0,66,0.00,,,0.00,0,Wunderground v.1.15,2013-01-07 12:05:00,
2013-01-07 07:10:00,40.8,30.3,30.25,NW,312,4.0,4.0,66,0.00,,,0.00,0,Wunderground v.1.15,2013-01-07 12:10:00,
2013-01-07 07:15:00,40.8,30.3,30.25,NW,313,3.0,9.0,66,0.00,,,0.00,0,Wunderground v.1.15,2013-01-07 12:15:00,
2013-01-07 07:20:00,40.8,30.3,30.25,NW,311,3.0,8.0,66,0.00,,,0.00,0,Wunderground v.1.15,2013-01-07 12:20:00,
2013-01-07 07:25:00,40.9,30.4,30.25,NW,310,4.0,8.0,66,0.00,,,0.00,0,Wunderground v.1.15,2013-01-07 12:25:00,
2013-01-07 07:30:00,40.8,30.3,30.26,NW,310,4.0,4.0,66,0.00,,,0.00,5,Wunderground v.1.15,2013-01-07 12:30:00,
2013-01-07 07:35:00,40.6,30.1,30.26,NW,313,4.0,8.0,66,0.00,,,0.00,7,Wunderground v.1.15,2013-01-07 12:35:00,
2013-01-07 07:40:00,40.5,30.0,30.26,NW,313,5.0,5.0,66,0.00,,,0.00,9,Wunderground v.1.15,2013-01-07 12:40:00,
2013-01-07 07:50:00,40.5,30.0,30.27,NW,314,4.0,9.0,66,0.00,,,0.00,12,Wunderground v.1.15,2013-01-07 12:50:00,
2013-01-07 07:55:00,40.5,29.7,30.27,NW,315,4.0,9.0,65,0.00,,,0.00,16,Wunderground v.1.15,2013-01-07 12:55:00,
2013-01-07 08:00:00,40.5,29.7,30.28,NW,315,4.0,9.0,65,0.00,,,0.00,14,Wunderground v.1.15,2013-01-07 13:00:00,
2013-01-07 08:05:00,40.5,29.3,30.28,NW,314,4.0,9.0,64,0.00,,,0.00,14,Wunderground v.1.15,2013-01-07 13:05:00,
2013-01-07 08:10:00,40.6,29.4,30.28,NW,313,5.0,9.0,64,0.00,,,0.00,18,Wunderground v.1.15,2013-01-07 13:10:00,
2013-01-07 08:15:00,40.8,29.6,30.28,NW,313,4.0,9.0,64,0.00,,,0.00,16,Wunderground v.1.15,2013-01-07 13:15:00,
2013-01-07 08:20:00,40.9,29.7,30.28,NW,313,4.0,4.0,64,0.00,,,0.00,18,Wunderground v.1.15,2013-01-07 13:20:00,
2013-01-07 08:25:00,41.1,29.8,30.28,NW,314,4.0,5.0,64,0.00,,,0.00,18,Wunderground v.1.15,2013-01-07 13:25:00,
2013-01-07 08:30:00,41.1,29.8,30.30,NW,315,4.0,4.0,64,0.00,,,0.00,19,Wunderground v.1.15,2013-01-07 13:30:00,
2013-01-07 08:40:00,41.2,29.9,30.30,NW,313,3.0,9.0,64,0.00,,,0.00,21,Wunderground v.1.15,2013-01-07 13:40:00,
2013-01-07 08:45:00,41.5,29.8,30.31,NW,314,4.0,10.0,63,0.00,,,0.00,21,Wunderground v.1.15,2013-01-07 13:45:00,
2013-01-07 08:50:00,41.8,29.7,30.31,NW,314,4.0,10.0,62,0.00,,,0.00,21,Wunderground v.1.15,2013-01-07 13:50:00,
2013-01-07 09:00:00,42.2,29.3,30.31,NW,315,4.0,10.0,60,0.00,,,0.00,23,Wunderground v.1.15,2013-01-07 14:00:00,
2013-01-07 09:05:00,42.2,28.9,30.31,NW,322,5.0,10.0,59,0.00,,,0.00,23,Wunderground v.1.15,2013-01-07 14:05:00,
2013-01-07 09:10:00,42.3,29.0,30.31,NW,314,6.0,10.0,59,0.00,,,0.00,25,Wunderground v.1.15,2013-01-07 14:10:00,
2013-01-07 09:15:00,42.5,28.8,30.32,NW,323,6.0,12.0,58,0.00,,,0.00,25,Wunderground v.1.15,2013-01-07 14:15:00,
2013-01-07 09:20:00,42.8,29.0,30.32,NW,311,5.0,12.0,58,0.00,,,0.00,25,Wunderground v.1.15,2013-01-07 14:20:00,
2013-01-07 09:25:00,42.9,29.5,30.32,NW,325,5.0,12.0,59,0.00,,,0.00,26,Wunderground v.1.15,2013-01-07 14:25:00,
2013-01-07 09:30:00,42.9,29.1,30.33,WNW,299,5.0,12.0,58,0.00,,,0.00,26,Wunderground v.1.15,2013-01-07 14:30:00,
2013-01-07 09:35:00,42.9,28.7,30.33,NW,306,5.0,12.0,57,0.00,,,0.00,26,Wunderground v.1.15,2013-01-07 14:35:00,
2013-01-07 09:40:00,43.1,28.9,30.33,WNW,298,7.0,12.0,57,0.00,,,0.00,28,Wunderground v.1.15,2013-01-07 14:40:00,
2013-01-07 09:50:00,43.2,29.0,30.34,NNW,335,6.0,6.0,57,0.00,,,0.00,32,Wunderground v.1.15,2013-01-07 14:50:00,
2013-01-07 09:55:00,43.2,28.5,30.34,WNW,297,5.0,15.0,56,0.00,,,0.00,40,Wunderground v.1.15,2013-01-07 14:55:00,
2013-01-07 10:00:00,43.3,28.2,30.34,NNW,336,5.0,5.0,55,0.00,,,0.00,54,Wunderground v.1.15,2013-01-07 15:00:00,
2013-01-07 10:05:00,43.3,27.8,30.34,NW,317,5.0,15.0,54,0.00,,,0.00,30,Wunderground v.1.15,2013-01-07 15:05:00,
2013-01-07 10:10:00,43.6,28.0,30.34,NW,320,6.0,15.0,54,0.00,,,0.00,32,Wunderground v.1.15,2013-01-07 15:10:00,
2013-01-07 10:15:00,43.8,28.2,30.35,NW,323,7.0,15.0,54,0.00,,,0.00,30,Wunderground v.1.15,2013-01-07 15:15:00,
2013-01-07 10:20:00,43.9,28.3,30.35,NW,321,7.0,14.0,54,0.00,,,0.00,32,Wunderground v.1.15,2013-01-07 15:20:00,
2013-01-07 10:30:00,44.2,27.7,30.36,NW,323,7.0,7.0,52,0.00,,,0.00,35,Wunderground v.1.15,2013-01-07 15:30:00,
2013-01-07 10:35:00,44.3,28.7,30.36,NW,305,5.0,14.0,54,0.00,,,0.00,37,Wunderground v.1.15,2013-01-07 15:35:00,
2013-01-07 10:40:00,44.3,27.8,30.36,WNW,295,5.0,14.0,52,0.00,,,0.00,37,Wunderground v.1.15,2013-01-07 15:40:00,
2013-01-07 10:45:00,44.5,28.0,30.36,WNW,296,6.0,15.0,52,0.00,,,0.00,35,Wunderground v.1.15,2013-01-07 15:45:00,
2013-01-07 10:50:00,44.8,28.7,30.36,NW,323,5.0,5.0,53,0.00,,,0.00,33,Wunderground v.1.15,2013-01-07 15:50:00,
2013-01-07 11:00:00,44.9,27.4,30.36,North,350,7.0,7.0,50,0.00,,,0.00,37,Wunderground v.1.15,2013-01-07 16:00:00,
2013-01-07 11:05:00,44.9,27.8,30.36,NNW,327,8.0,11.0,51,0.00,,,0.00,40,Wunderground v.1.15,2013-01-07 16:05:00,
2013-01-07 11:10:00,45.1,27.6,30.36,NW,304,8.0,8.0,50,0.00,,,0.00,35,Wunderground v.1.15,2013-01-07 16:10:00,
2013-01-07 11:15:00,45.1,27.1,30.36,WNW,301,8.0,16.0,49,0.00,,,0.00,35,Wunderground v.1.15,2013-01-07 16:15:00,
2013-01-07 11:20:00,45.4,28.3,30.36,NNW,341,6.0,16.0,51,0.00,,,0.00,37,Wunderground v.1.15,2013-01-07 16:20:00,
2013-01-07 11:25:00,45.5,27.9,30.36,West,279,4.0,16.0,50,0.00,,,0.00,46,Wunderground v.1.15,2013-01-07 16:25:00,
2013-01-07 11:30:00,45.4,26.8,30.35,NNW,346,7.0,7.0,48,0.00,,,0.00,46,Wunderground v.1.15,2013-01-07 16:30:00,
2013-01-07 11:40:00,45.5,27.4,30.35,NW,311,6.0,6.0,49,0.00,,,0.00,37,Wunderground v.1.15,2013-01-07 16:40:00,
2013-01-07 11:45:00,45.7,27.6,30.35,NW,315,7.0,9.0,49,0.00,,,0.00,37,Wunderground v.1.15,2013-01-07 16:45:00,
2013-01-07 11:50:00,45.8,28.2,30.35,NW,311,6.0,14.0,50,0.00,,,0.00,56,Wunderground v.1.15,2013-01-07 16:50:00,
2013-01-07 11:55:00,46.0,26.9,30.35,NNW,334,6.0,14.0,47,0.00,,,0.00,72,Wunderground v.1.15,2013-01-07 16:55:00,
2013-01-07 12:00:00,46.0,26.9,30.34,NW,317,7.0,7.0,47,0.00,,,0.00,51,Wunderground v.1.15,2013-01-07 17:00:00,
2013-01-07 12:10:00,46.0,26.9,30.34,NW,306,8.0,14.0,47,0.00,,,0.00,54,Wunderground v.1.15,2013-01-07 17:10:00,
2013-01-07 12:15:00,46.1,27.0,30.34,NNW,347,9.0,17.0,47,0.00,,,0.00,42,Wunderground v.1.15,2013-01-07 17:15:00,
2013-01-07 12:20:00,46.1,26.4,30.34,North,355,8.0,17.0,46,0.00,,,0.00,44,Wunderground v.1.15,2013-01-07 17:20:00,
2013-01-07 12:25:00,46.0,26.9,30.34,NNW,336,8.0,17.0,47,0.00,,,0.00,40,Wunderground v.1.15,2013-01-07 17:25:00,
2013-01-07 12:30:00,46.0,26.4,30.33,NW,324,8.0,8.0,46,0.00,,,0.00,42,Wunderground v.1.15,2013-01-07 17:30:00,
2013-01-07 12:35:00,46.0,26.9,30.33,North,350,8.0,12.0,47,0.00,,,0.00,46,Wunderground v.1.15,2013-01-07 17:35:00,
2013-01-07 12:40:00,46.0,26.9,30.33,NNW,327,8.0,8.0,47,0.00,,,0.00,135,Wunderground v.1.15,2013-01-07 17:40:00,
2013-01-07 12:50:00,46.1,26.4,30.33,North,350,8.0,15.0,46,0.00,,,0.00,46,Wunderground v.1.15,2013-01-07 17:50:00,
2013-01-07 12:55:00,46.1,27.0,30.33,North,5,7.0,15.0,47,0.00,,,0.00,62,Wunderground v.1.15,2013-01-07 17:55:00,
2013-01-07 13:00:00,46.2,27.1,30.33,North,5,6.0,6.0,47,0.00,,,0.00,79,Wunderground v.1.15,2013-01-07 18:00:00,
2013-01-07 13:05:00,46.2,27.1,30.33,North,5,8.0,14.0,47,0.00,,,0.00,81,Wunderground v.1.15,2013-01-07 18:05:00,
2013-01-07 13:10:00,46.1,27.0,30.33,North,360,10.0,15.0,47,0.00,,,0.00,58,Wunderground v.1.15,2013-01-07 18:10:00,
2013-01-07 13:15:00,46.1,27.0,30.34,NE,38,10.0,17.0,47,0.00,,,0.00,44,Wunderground v.1.15,2013-01-07 18:15:00,
2013-01-07 13:20:00,46.0,25.8,30.34,North,5,9.0,17.0,45,0.00,,,0.00,46,Wunderground v.1.15,2013-01-07 18:20:00,
2013-01-07 13:25:00,45.8,25.6,30.34,North,349,9.0,17.0,45,0.00,,,0.00,51,Wunderground v.1.15,2013-01-07 18:25:00,
2013-01-07 13:30:00,46.0,26.9,30.34,North,5,7.0,17.0,47,0.00,,,0.00,42,Wunderground v.1.15,2013-01-07 18:30:00,
2013-01-07 13:35:00,46.0,25.8,30.34,NNW,348,8.0,17.0,45,0.00,,,0.00,46,Wunderground v.1.15,2013-01-07 18:35:00,
2013-01-07 13:40:00,45.8,26.7,30.34,North,5,9.0,17.0,47,0.00,,,0.00,46,Wunderground v.1.15,2013-01-07 18:40:00,
2013-01-07 13:45:00,45.8,26.2,30.34,NNW,348,10.0,17.0,46,0.00,,,0.00,44,Wunderground v.1.15,2013-01-07 18:45:00,
2013-01-07 13:55:00,45.8,26.2,30.34,North,355,9.0,17.0,46,0.00,,,0.00,56,Wunderground v.1.15,2013-01-07 18:55:00,
2013-01-07 14:00:00,46.0,26.4,30.34,NNE,15,8.0,8.0,46,0.00,,,0.00,44,Wunderground v.1.15,2013-01-07 19:00:00,
2013-01-07 14:05:00,46.0,26.4,30.34,North,360,8.0,17.0,46,0.00,,,0.00,44,Wunderground v.1.15,2013-01-07 19:05:00,
2013-01-07 14:10:00,45.8,26.7,30.34,North,350,8.0,8.0,47,0.00,,,0.00,44,Wunderground v.1.15,2013-01-07 19:10:00,
2013-01-07 14:15:00,45.7,26.6,30.34,North,10,9.0,9.0,47,0.00,,,0.00,46,Wunderground v.1.15,2013-01-07 19:15:00,
2013-01-07 14:20:00,45.8,27.2,30.34,North,9,9.0,9.0,48,0.00,,,0.00,46,Wunderground v.1.15,2013-01-07 19:20:00,
2013-01-07 14:30:00,45.8,28.2,30.34,NNW,342,9.0,9.0,50,0.00,,,0.00,47,Wunderground v.1.15,2013-01-07 19:30:00,
2013-01-07 14:35:00,45.7,27.1,30.34,North,360,9.0,17.0,48,0.00,,,0.00,76,Wunderground v.1.15,2013-01-07 19:35:00,
2013-01-07 14:40:00,45.5,26.9,30.34,North,355,7.0,17.0,48,0.00,,,0.00,46,Wunderground v.1.15,2013-01-07 19:40:00,
2013-01-07 14:45:00,45.7,27.6,30.35,North,350,7.0,17.0,49,0.00,,,0.00,46,Wunderground v.1.15,2013-01-07 19:45:00,
2013-01-07 14:50:00,45.5,26.9,30.35,NNE,13,9.0,17.0,48,0.00,,,0.00,70,Wunderground v.1.15,2013-01-07 19:50:00,
2013-01-07 15:00:00,45.4,27.3,30.36,NNE,29,8.0,8.0,49,0.00,,,0.00,81,Wunderground v.1.15,2013-01-07 20:00:00,
2013-01-07 15:05:00,45.2,26.7,30.36,North,5,7.0,17.0,48,0.00,,,0.00,179,Wunderground v.1.15,2013-01-07 20:05:00,
2013-01-07 15:10:00,45.1,26.6,30.36,NNE,13,7.0,17.0,48,0.00,,,0.00,255,Wunderground v.1.15,2013-01-07 20:10:00,
2013-01-07 15:15:00,45.2,27.2,30.36,North,360,6.0,17.0,49,0.00,,,0.00,232,Wunderground v.1.15,2013-01-07 20:15:00,
2013-01-07 15:20:00,45.4,26.8,30.36,NNW,343,5.0,15.0,48,0.00,,,0.00,230,Wunderground v.1.15,2013-01-07 20:20:00,
2013-01-07 15:25:00,45.5,26.4,30.36,NNE,12,4.0,15.0,47,0.00,,,0.00,216,Wunderground v.1.15,2013-01-07 20:25:00,
2013-01-07 15:30:00,45.4,26.3,30.36,North,360,5.0,5.0,47,0.00,,,0.00,200,Wunderground v.1.15,2013-01-07 20:30:00,
2013-01-07 15:40:00,45.4,26.8,30.36,NNE,16,5.0,15.0,48,0.00,,,0.00,176,Wunderground v.1.15,2013-01-07 20:40:00,
2013-01-07 15:45:00,45.4,26.8,30.37,NNE,22,5.0,15.0,48,0.00,,,0.00,167,Wunderground v.1.15,2013-01-07 20:45:00,
2013-01-07 15:50:00,45.2,26.7,30.37,NNE,25,5.0,5.0,48,0.00,,,0.00,142,Wunderground v.1.15,2013-01-07 20:50:00,
2013-01-07 15:55:00,45.2,27.2,30.37,North,5,5.0,6.0,49,0.00,,,0.00,139,Wunderground v.1.15,2013-01-07 20:55:00,
2013-01-07 16:00:00,45.2,26.7,30.37,North,5,4.0,10.0,48,0.00,,,0.00,125,Wunderground v.1.15,2013-01-07 21:00:00,
2013-01-07 16:05:00,45.2,27.2,30.37,North,5,3.0,10.0,49,0.00,,,0.00,113,Wunderground v.1.15,2013-01-07 21:05:00,
2013-01-07 16:10:00,45.2,27.2,30.37,North,5,3.0,3.0,49,0.00,,,0.00,56,Wunderground v.1.15,2013-01-07 21:10:00,
2013-01-07 16:15:00,45.1,27.6,30.37,North,9,3.0,9.0,50,0.00,,,0.00,76,Wunderground v.1.15,2013-01-07 21:15:00,
2013-01-07 16:20:00,44.8,27.8,30.37,North,10,3.0,9.0,51,0.00,,,0.00,60,Wunderground v.1.15,2013-01-07 21:20:00,
2013-01-07 16:25:00,44.5,27.5,30.37,North,5,4.0,9.0,51,0.00,,,0.00,51,Wunderground v.1.15,2013-01-07 21:25:00,
2013-01-07 16:30:00,44.2,27.2,30.38,North,5,4.0,4.0,51,0.00,,,0.00,46,Wunderground v.1.15,2013-01-07 21:30:00,
2013-01-07 16:35:00,44.1,27.1,30.38,North,5,4.0,9.0,51,0.00,,,0.00,35,Wunderground v.1.15,2013-01-07 21:35:00,
2013-01-07 16:40:00,43.8,27.3,30.38,North,5,3.0,9.0,52,0.00,,,0.00,25,Wunderground v.1.15,2013-01-07 21:40:00,
2013-01-07 16:50:00,43.2,27.2,30.38,North,5,3.0,3.0,53,0.00,,,0.00,11,Wunderground v.1.15,2013-01-07 21:50:00,
2013-01-07 16:55:00,42.8,26.8,30.38,North,5,2.0,7.0,53,0.00,,,0.00,7,Wunderground v.1.15,2013-01-07 21:55:00,
2013-01-07 17:00:00,42.3,26.8,30.38,North,5,2.0,7.0,54,0.00,,,0.00,0,Wunderground v.1.15,2013-01-07 22:00:00,
2013-01-07 17:10:00,41.6,27.1,30.38,North,5,1.0,7.0,56,0.00,,,0.00,0,Wunderground v.1.15,2013-01-07 22:10:00,
2013-01-07 17:15:00,41.3,27.2,30.38,North,5,1.0,7.0,57,0.00,,,0.00,0,Wunderground v.1.15,2013-01-07 22:15:00,
2013-01-07 17:20:00,40.9,27.2,30.38,North,5,1.0,1.0,58,0.00,,,0.00,0,Wunderground v.1.15,2013-01-07 22:20:00,
2013-01-07 17:25:00,40.6,27.4,30.38,North,5,0.0,4.0,59,0.00,,,0.00,0,Wunderground v.1.15,2013-01-07 22:25:00,
2013-01-07 17:35:00,40.2,27.0,30.39,North,5,0.0,4.0,59,0.00,,,0.00,0,Wunderground v.1.15,2013-01-07 22:35:00,
2013-01-07 17:40:00,39.9,26.7,30.39,North,5,0.0,4.0,59,0.00,,,0.00,0,Wunderground v.1.15,2013-01-07 22:40:00,
2013-01-07 17:45:00,39.6,26.8,30.39,North,5,0.0,4.0,60,0.00,,,0.00,0,Wunderground v.1.15,2013-01-07 22:45:00,
2013-01-07 17:50:00,39.2,27.3,30.39,North,5,0.0,3.0,62,0.00,,,0.00,0,Wunderground v.1.15,2013-01-07 22:50:00,
2013-01-07 18:00:00,38.6,27.1,30.39,North,5,1.0,3.0,63,0.00,,,0.00,0,Wunderground v.1.15,2013-01-07 23:00:00,
2013-01-07 18:05:00,38.2,27.1,30.39,North,5,1.0,3.0,64,0.00,,,0.00,0,Wunderground v.1.15,2013-01-07 23:05:00,
2013-01-07 18:15:00,37.8,27.1,30.39,North,5,0.0,3.0,65,0.00,,,0.00,0,Wunderground v.1.15,2013-01-07 23:15:00,
2013-01-07 18:20:00,37.6,26.9,30.39,North,5,0.0,3.0,65,0.00,,,0.00,0,Wunderground v.1.15,2013-01-07 23:20:00,
2013-01-07 18:25:00,37.3,27.0,30.39,North,5,0.0,3.0,66,0.00,,,0.00,0,Wunderground v.1.15,2013-01-07 23:25:00,
2013-01-07 18:30:00,37.0,27.1,30.40,North,5,0.0,3.0,67,0.00,,,0.00,0,Wunderground v.1.15,2013-01-07 23:30:00,
2013-01-07 18:35:00,36.9,27.0,30.40,North,5,0.0,3.0,67,0.00,,,0.00,0,Wunderground v.1.15,2013-01-07 23:35:00,
2013-01-07 18:40:00,36.6,27.0,30.40,North,5,0.0,3.0,68,0.00,,,0.00,0,Wunderground v.1.15,2013-01-07 23:40:00,
2013-01-07 18:45:00,36.5,27.3,30.40,North,5,0.0,3.0,69,0.00,,,0.00,0,Wunderground v.1.15,2013-01-07 23:45:00,
2013-01-07 18:50:00,36.2,27.0,30.40,North,5,0.0,0.0,69,0.00,,,0.00,0,Wunderground v.1.15,2013-01-07 23:50:00,
2013-01-07 18:55:00,35.9,26.7,30.40,North,5,0.0,0.0,69,0.00,,,0.00,0,Wunderground v.1.15,2013-01-07 23:55:00,
2013-01-07 19:00:00,35.8,27.0,30.40,North,5,0.0,0.0,70,0.00,,,0.00,0,Wunderground v.1.15,2013-01-08 00:00:00,
2013-01-07 19:05:00,35.5,27.0,30.40,North,5,0.0,0.0,71,0.00,,,0.00,0,Wunderground v.1.15,2013-01-08 00:05:00,
2013-01-07 19:15:00,35.0,26.9,30.40,North,5,0.0,0.0,72,0.00,,,0.00,0,Wunderground v.1.15,2013-01-08 00:15:00,
2013-01-07 19:25:00,34.7,26.9,30.40,North,5,0.0,0.0,73,0.00,,,0.00,0,Wunderground v.1.15,2013-01-08 00:25:00,
2013-01-07 19:30:00,34.7,27.6,30.40,North,5,0.0,0.0,75,0.00,,,0.00,0,Wunderground v.1.15,2013-01-08 00:30:00,
2013-01-07 19:35:00,34.6,27.8,30.40,North,5,0.0,0.0,76,0.00,,,0.00,0,Wunderground v.1.15,2013-01-08 00:35:00,
2013-01-07 19:40:00,34.4,27.9,30.40,North,5,0.0,0.0,77,0.00,,,0.00,0,Wunderground v.1.15,2013-01-08 00:40:00,
2013-01-07 19:45:00,34.3,28.2,30.39,North,5,0.0,0.0,78,0.00,,,0.00,0,Wunderground v.1.15,2013-01-08 00:45:00,
2013-01-07 19:50:00,34.1,28.0,30.39,North,5,0.0,0.0,78,0.00,,,0.00,0,Wunderground v.1.15,2013-01-08 00:50:00,
2013-01-07 19:55:00,34.0,27.9,30.39,North,5,0.0,0.0,78,0.00,,,0.00,0,Wunderground v.1.15,2013-01-08 00:55:00,
2013-01-07 20:00:00,33.8,27.7,30.39,North,5,0.0,0.0,78,0.00,,,0.00,0,Wunderground v.1.15,2013-01-08 01:00:00,
2013-01-07 20:05:00,33.7,27.3,30.39,North,5,0.0,0.0,77,0.00,,,0.00,0,Wunderground v.1.15,2013-01-08 01:05:00,
2013-01-07 20:10:00,33.5,27.1,30.39,North,5,0.0,0.0,77,0.00,,,0.00,0,Wunderground v.1.15,2013-01-08 01:10:00,
2013-01-07 20:15:00,33.4,27.0,30.39,North,5,0.0,0.0,77,0.00,,,0.00,0,Wunderground v.1.15,2013-01-08 01:15:00,
2013-01-07 20:25:00,33.2,27.1,30.39,North,5,0.0,0.0,78,0.00,,,0.00,0,Wunderground v.1.15,2013-01-08 01:25:00,
2013-01-07 20:35:00,33.1,27.0,30.39,North,5,0.0,0.0,78,0.00,,,0.00,0,Wunderground v.1.15,2013-01-08 01:35:00,
2013-01-07 20:40:00,32.9,26.8,30.39,North,5,0.0,0.0,78,0.00,,,0.00,0,Wunderground v.1.15,2013-01-08 01:40:00,
2013-01-07 20:45:00,32.8,26.7,30.40,North,5,0.0,0.0,78,0.00,,,0.00,0,Wunderground v.1.15,2013-01-08 01:45:00,
2013-01-07 20:50:00,32.7,26.9,30.40,North,5,0.0,2.0,79,0.00,,,0.00,0,Wunderground v.1.15,2013-01-08 01:50:00,
2013-01-07 20:55:00,32.8,27.6,30.40,North,5,0.0,2.0,81,0.00,,,0.00,0,Wunderground v.1.15,2013-01-08 01:55:00,
2013-01-07 21:00:00,32.9,28.0,30.40,North,5,0.0,0.0,82,0.00,,,0.00,0,Wunderground v.1.15,2013-01-08 02:00:00,
2013-01-07 21:10:00,32.9,28.3,30.40,North,5,0.0,0.0,83,0.00,,,0.00,0,Wunderground v.1.15,2013-01-08 02:10:00,
2013-01-07 21:15:00,32.8,28.2,30.40,North,5,0.0,2.0,83,0.00,,,0.00,0,Wunderground v.1.15,2013-01-08 02:15:00,
2013-01-07 21:20:00,32.7,28.1,30.40,North,5,0.0,2.0,83,0.00,,,0.00,0,Wunderground v.1.15,2013-01-08 02:20:00,
2013-01-07 21:25:00,32.4,27.8,30.40,North,5,0.0,2.0,83,0.00,,,0.00,0,Wunderground v.1.15,2013-01-08 02:25:00,
2013-01-07 21:35:00,32.2,27.9,30.40,North,5,0.0,2.0,84,0.00,,,0.00,0,Wunderground v.1.15,2013-01-08 02:35:00,
2013-01-07 21:40:00,32.2,27.9,30.40,North,5,0.0,2.0,84,0.00,,,0.00,0,Wunderground v.1.15,2013-01-08 02:40:00,
2013-01-07 21:45:00,32.1,27.8,30.40,North,5,1.0,2.0,84,0.00,,,0.00,0,Wunderground v.1.15,2013-01-08 02:45:00,
2013-01-07 21:50:00,31.9,27.9,30.40,North,5,0.0,2.0,85,0.00,,,0.00,0,Wunderground v.1.15,2013-01-08 02:50:00,
2013-01-07 21:55:00,31.9,27.9,30.40,North,5,0.0,2.0,85,0.00,,,0.00,0,Wunderground v.1.15,2013-01-08 02:55:00,
2013-01-07 22:00:00,31.9,28.2,30.40,North,5,0.0,2.0,86,0.00,,,0.00,0,Wunderground v.1.15,2013-01-08 03:00:00,
2013-01-07 22:05:00,31.8,28.1,30.40,North,5,0.0,2.0,86,0.00,,,0.00,0,Wunderground v.1.15,2013-01-08 03:05:00,
2013-01-07 22:15:00,31.8,28.4,30.40,North,5,0.0,2.0,87,0.00,,,0.00,0,Wunderground v.1.15,2013-01-08 03:15:00,
2013-01-07 22:20:00,31.8,28.4,30.40,North,5,0.0,0.0,87,0.00,,,0.00,0,Wunderground v.1.15,2013-01-08 03:20:00,
2013-01-07 22:25:00,31.8,28.4,30.40,North,5,0.0,0.0,87,0.00,,,0.00,0,Wunderground v.1.15,2013-01-08 03:25:00,
2013-01-07 22:30:00,31.9,28.8,30.40,North,5,0.0,0.0,88,0.00,,,0.00,0,Wunderground v.1.15,2013-01-08 03:30:00,
2013-01-07 22:35:00,31.8,28.7,30.40,North,5,0.0,0.0,88,0.00,,,0.00,0,Wunderground v.1.15,2013-01-08 03:35:00,
2013-01-07 22:45:00,32.1,28.9,30.39,North,5,0.0,0.0,88,0.00,,,0.00,0,Wunderground v.1.15,2013-01-08 03:45:00,
2013-01-07 22:50:00,32.1,28.9,30.39,North,5,0.0,3.0,88,0.00,,,0.00,0,Wunderground v.1.15,2013-01-08 03:50:00,
2013-01-07 22:55:00,32.1,28.9,30.39,NNE,23,1.0,3.0,88,0.00,,,0.00,0,Wunderground v.1.15,2013-01-08 03:55:00,
2013-01-07 23:00:00,32.1,29.2,30.39,NNE,25,2.0,2.0,89,0.00,,,0.00,0,Wunderground v.1.15,2013-01-08 04:00:00,
2013-01-07 23:05:00,32.1,29.2,30.39,NNE,28,1.0,2.0,89,0.00,,,0.00,0,Wunderground v.1.15,2013-01-08 04:05:00,
2013-01-07 23:15:00,32.2,29.0,30.39,NNE,30,1.0,5.0,88,0.00,,,0.00,0,Wunderground v.1.15,2013-01-08 04:15:00,
2013-01-07 23:20:00,32.2,29.0,30.39,NNE,30,1.0,1.0,88,0.00,,,0.00,0,Wunderground v.1.15,2013-01-08 04:20:00,
2013-01-07 23:25:00,32.1,28.9,30.39,NNE,30,0.0,5.0,88,0.00,,,0.00,0,Wunderground v.1.15,2013-01-08 04:25:00,
2013-01-07 23:30:00,31.9,28.8,30.39,NNE,30,0.0,5.0,88,0.00,,,0.00,0,Wunderground v.1.15,2013-01-08 04:30:00,
2013-01-07 23:35:00,31.9,28.5,30.39,NNE,30,0.0,5.0,87,0.00,,,0.00,0,Wunderground v.1.15,2013-01-08 04:35:00,
2013-01-07 23:40:00,32.1,28.7,30.39,NNE,30,0.0,5.0,87,0.00,,,0.00,0,Wunderground v.1.15,2013-01-08 04:40:00,
2013-01-07 23:45:00,32.2,28.8,30.39,NNE,30,0.0,5.0,87,0.00,,,0.00,0,Wunderground v.1.15,2013-01-08 04:45:00,
2013-01-07 23:55:00,32.1,28.7,30.39,NNE,30,0.0,3.0,87,0.00,,,0.00,0,Wunderground v.1.15,2013-01-08 04:55:00,